Hourly Data Report for October 03, 2017

All times are specified in Local Standard Time (LST). Add 1 hour to adjust for Daylight Saving Time where and when it is observed.

CARBERRY CS
MANITOBA

49°54'20.900" N
99°21'26.800" W
383.50 m
5010547
71170
WZE

Download Data

Hourly Data (October 2017)
Hourly Data Report for October 3, 2017
Temp Definition
°C
Dew Point Temp Definition
°C
Rel Hum Definition
%
Wind Dir Definition
10's deg

Wind Spd Definition
km/h
Visibility Definition
km
Stn Press Definition
kPa
Hmdx Definition


Wind Chill Definition


Weather Definition


TIME
00:00 3.4 0.8 83 20 5   96.63     LegendNANA
01:00 1.2 -0.5 89 7 2   96.57     LegendNANA
02:00 3.0 0.9 86 16 11   96.75     LegendNANA
03:00 2.1 0.3 88 22 4   96.71     LegendNANA
04:00 2.9 0.8 87 20 8   96.76     LegendNANA
05:00 2.5 0.5 87 21 5   96.83     LegendNANA
06:00 2.1 0.4 88 24 6   96.90     LegendNANA
07:00 2.3 0.5 88 24 6   96.97     LegendNANA
08:00 2.7 0.6 87 22 6   96.98     LegendNANA
09:00 3.5 0.9 83 25 9   97.04     LegendNANA
10:00 6.3 1.6 72 22 7   97.05     LegendNANA
11:00
12:00
13:00
14:00 10.1 0.7 52 24 12   97.19     LegendNANA
15:00 10.5 1.2 53 21 10   97.23     LegendNANA
16:00 10.3 1.2 53 25 14   97.24     LegendNANA
17:00 9.7 1.1 55 24 14   97.33     LegendNANA
18:00 8.0 1.0 61 24 10   97.37     LegendNANA
19:00 6.0 1.0 70 24 9   97.42     LegendNANA
20:00 5.4 0.9 73 24 7   97.47     LegendNANA
21:00 5.8 1.4 74 26 13   97.49     LegendNANA
22:00 5.8 1.4 73 26 15   97.48     LegendNANA
23:00 6.1 1.6 73 25 12   97.49     LegendNANA

Notes on Data Quality.

Legend

  • E = Estimated
  • M = Missing
  • NA = Not Available
  • ‡ = Partner data that is not subject to review by the National Climate Archives
Date modified: